Terug naar catalogus

HAWK-13C

ActiefMilitairSSO
NORAD 67393·PAYLOAD·🇺🇸 United States

Gelanceerd Jan 11, 2026 vanaf Vandenberg Space Force Base

Loading…

Volgende Passages (komende 24 uur)

TLE

VersSource: Space-Track

Epoch: Sep 13, 2026, 23:11 UTC

1 67393U 26004AG  26256.96648768  .00003482  00000-0  16593-3 0  9999
2 67393  97.4640 255.1674 0006490  41.8739 318.2991 15.19765264 37246

Volg HAWK-13C in realtime met AllMySat

Download on the App Store